Year,Month,Day,Hour,Minute,Value (Times are PST for temperature in C)
2024,01,28,00,00,11.10
2024,01,28,00,01,11.10
2024,01,28,00,02,11.20
2024,01,28,00,03,11.20
2024,01,28,00,04,11.20
2024,01,28,00,05,11.20
2024,01,28,00,06,11.20
2024,01,28,00,07,11.20
2024,01,28,00,08,11.20
2024,01,28,00,09,11.20
2024,01,28,00,10,11.20
2024,01,28,00,11,11.20
2024,01,28,00,12,11.20
2024,01,28,00,13,11.20
2024,01,28,00,14,11.20
2024,01,28,00,15,11.20
2024,01,28,00,16,11.20
2024,01,28,00,17,11.20
2024,01,28,00,18,11.20
2024,01,28,00,19,11.20
2024,01,28,00,20,11.20
2024,01,28,00,21,11.20
2024,01,28,00,22,11.20
2024,01,28,00,23,11.20
2024,01,28,00,24,11.20
2024,01,28,00,25,11.20
2024,01,28,00,26,11.20
2024,01,28,00,27,11.20
2024,01,28,00,28,11.20
2024,01,28,00,29,11.20
2024,01,28,00,30,11.20
2024,01,28,00,31,11.20
2024,01,28,00,32,11.20
2024,01,28,00,33,11.20
2024,01,28,00,34,11.20
2024,01,28,00,35,11.20
2024,01,28,00,36,11.20
2024,01,28,00,37,11.20
2024,01,28,00,38,11.20
2024,01,28,00,39,11.20
2024,01,28,00,40,11.20
2024,01,28,00,41,11.20
2024,01,28,00,42,11.20
2024,01,28,00,43,11.20
2024,01,28,00,44,11.20
2024,01,28,00,45,11.20
2024,01,28,00,46,11.30
2024,01,28,00,47,11.30
2024,01,28,00,48,11.30
2024,01,28,00,49,11.30
2024,01,28,00,50,11.30
2024,01,28,00,51,11.30
2024,01,28,00,52,11.30
2024,01,28,00,53,11.30
2024,01,28,00,54,11.30
2024,01,28,00,55,11.30
2024,01,28,00,56,11.30
2024,01,28,00,57,11.30
2024,01,28,00,58,11.30
2024,01,28,00,59,11.30
2024,01,28,01,00,11.30
2024,01,28,01,01,11.30
2024,01,28,01,02,11.30
2024,01,28,01,03,11.30
2024,01,28,01,04,11.30
2024,01,28,01,05,11.30
2024,01,28,01,06,11.30
2024,01,28,01,07,11.20
2024,01,28,01,08,11.20
2024,01,28,01,09,11.20
2024,01,28,01,10,11.20
2024,01,28,01,11,11.20
2024,01,28,01,12,11.20
2024,01,28,01,13,11.20
2024,01,28,01,14,11.20
2024,01,28,01,15,11.20
2024,01,28,01,16,11.20
2024,01,28,01,17,11.20
2024,01,28,01,18,11.20
2024,01,28,01,19,11.20
2024,01,28,01,20,11.20
2024,01,28,01,21,11.20
2024,01,28,01,22,11.20
2024,01,28,01,23,11.30
2024,01,28,01,24,11.30
2024,01,28,01,25,11.30
2024,01,28,01,26,11.30
2024,01,28,01,27,11.30
2024,01,28,01,28,11.30
2024,01,28,01,29,11.30
2024,01,28,01,30,11.30
2024,01,28,01,31,11.30
2024,01,28,01,32,11.30
2024,01,28,01,33,11.30
2024,01,28,01,34,11.30
2024,01,28,01,35,11.30
2024,01,28,01,36,11.30
2024,01,28,01,37,11.30
2024,01,28,01,38,11.30
2024,01,28,01,39,11.30
2024,01,28,01,40,11.30
2024,01,28,01,41,11.30
2024,01,28,01,42,11.30
2024,01,28,01,43,11.30
2024,01,28,01,44,11.30
2024,01,28,01,45,11.30
2024,01,28,01,46,11.30
2024,01,28,01,47,11.30
2024,01,28,01,48,11.30
2024,01,28,01,49,11.30
2024,01,28,01,50,11.30
2024,01,28,01,51,11.30
2024,01,28,01,52,11.40
2024,01,28,01,53,11.40
2024,01,28,01,54,11.40
2024,01,28,01,55,11.40
2024,01,28,01,56,11.40
2024,01,28,01,57,11.40
2024,01,28,01,58,11.40
2024,01,28,01,59,11.40
2024,01,28,02,00,11.40
2024,01,28,02,01,11.40
2024,01,28,02,02,11.40
2024,01,28,02,03,11.40
2024,01,28,02,04,11.30
2024,01,28,02,05,11.30
2024,01,28,02,06,11.30
2024,01,28,02,07,11.30
2024,01,28,02,08,11.30
2024,01,28,02,09,11.30
2024,01,28,02,10,11.30
2024,01,28,02,11,11.40
2024,01,28,02,12,11.40
2024,01,28,02,13,11.50
2024,01,28,02,14,11.60
2024,01,28,02,15,11.60
2024,01,28,02,16,11.60
2024,01,28,02,17,11.70
2024,01,28,02,18,11.70
2024,01,28,02,19,11.70
2024,01,28,02,20,11.70
2024,01,28,02,21,11.70
2024,01,28,02,22,11.70
2024,01,28,02,23,11.80
2024,01,28,02,24,11.80
2024,01,28,02,25,11.80
2024,01,28,02,26,11.80
2024,01,28,02,27,11.80
2024,01,28,02,28,11.80
2024,01,28,02,29,11.80
2024,01,28,02,30,11.80
2024,01,28,02,31,11.80
2024,01,28,02,32,11.80
2024,01,28,02,33,11.80
2024,01,28,02,34,11.80
2024,01,28,02,35,11.80
2024,01,28,02,36,11.80
2024,01,28,02,37,11.80
2024,01,28,02,38,11.70
2024,01,28,02,39,11.70
2024,01,28,02,40,11.70
2024,01,28,02,41,11.70
2024,01,28,02,42,11.70
2024,01,28,02,43,11.70
2024,01,28,02,44,11.70
2024,01,28,02,45,11.60
2024,01,28,02,46,11.50
2024,01,28,02,47,11.40
2024,01,28,02,48,11.40
2024,01,28,02,49,11.30
2024,01,28,02,50,11.20
2024,01,28,02,51,11.10
2024,01,28,02,52,11.00
2024,01,28,02,53,10.90
2024,01,28,02,54,10.90
2024,01,28,02,55,10.80
2024,01,28,02,56,10.70
2024,01,28,02,57,10.70
2024,01,28,02,58,10.70
2024,01,28,02,59,10.60
2024,01,28,03,00,10.60
2024,01,28,03,01,10.60
2024,01,28,03,02,10.60
2024,01,28,03,03,10.60
2024,01,28,03,04,10.60
2024,01,28,03,05,10.70
2024,01,28,03,06,10.70
2024,01,28,03,07,10.70
2024,01,28,03,08,10.80
2024,01,28,03,09,10.80
2024,01,28,03,10,10.80
2024,01,28,03,11,10.90
2024,01,28,03,12,10.90
2024,01,28,03,13,10.90
2024,01,28,03,14,10.90
2024,01,28,03,15,10.90
2024,01,28,03,16,10.90
2024,01,28,03,17,10.90
2024,01,28,03,18,10.80
2024,01,28,03,19,10.80
2024,01,28,03,20,10.80
2024,01,28,03,21,10.80
2024,01,28,03,22,10.80
2024,01,28,03,23,10.80
2024,01,28,03,24,10.80
2024,01,28,03,25,10.80
2024,01,28,03,26,10.80
2024,01,28,03,27,10.80
2024,01,28,03,28,10.80
2024,01,28,03,29,10.80
2024,01,28,03,30,10.80
2024,01,28,03,31,10.80
2024,01,28,03,32,10.80
2024,01,28,03,33,10.80
2024,01,28,03,34,10.80
2024,01,28,03,35,10.80
2024,01,28,03,36,10.80
2024,01,28,03,37,10.80
2024,01,28,03,38,10.80
2024,01,28,03,39,10.70
2024,01,28,03,40,10.70
2024,01,28,03,41,10.70
2024,01,28,03,42,10.70
2024,01,28,03,43,10.70
2024,01,28,03,44,10.70
2024,01,28,03,45,10.70
2024,01,28,03,46,10.70
2024,01,28,03,47,10.70
2024,01,28,03,48,10.60
2024,01,28,03,49,10.60
2024,01,28,03,50,10.60
2024,01,28,03,51,10.60
2024,01,28,03,52,10.60
2024,01,28,03,53,10.60
2024,01,28,03,54,10.60
2024,01,28,03,55,10.60
2024,01,28,03,56,10.70
2024,01,28,03,57,10.70
2024,01,28,03,58,10.70
2024,01,28,03,59,10.70
2024,01,28,04,00,10.70
2024,01,28,04,01,10.70
2024,01,28,04,02,10.70
2024,01,28,04,03,10.70
2024,01,28,04,04,10.80
2024,01,28,04,05,10.80
2024,01,28,04,06,10.80
2024,01,28,04,07,10.80
2024,01,28,04,08,10.80
2024,01,28,04,09,10.80
2024,01,28,04,10,10.80
2024,01,28,04,11,10.80
2024,01,28,04,12,10.80
2024,01,28,04,13,10.80
2024,01,28,04,14,10.80
2024,01,28,04,15,10.80
2024,01,28,04,16,10.80
2024,01,28,04,17,10.80
2024,01,28,04,18,10.80
2024,01,28,04,19,10.80
2024,01,28,04,20,10.80
2024,01,28,04,21,10.80
2024,01,28,04,22,10.80
2024,01,28,04,23,10.80
2024,01,28,04,24,10.80
2024,01,28,04,25,10.80
2024,01,28,04,26,10.80
2024,01,28,04,27,10.80
2024,01,28,04,28,10.80
2024,01,28,04,29,10.80
2024,01,28,04,30,10.80
2024,01,28,04,31,10.80
2024,01,28,04,32,10.80
2024,01,28,04,33,10.80
2024,01,28,04,34,10.80
2024,01,28,04,35,10.80
2024,01,28,04,36,10.80
2024,01,28,04,37,10.80
2024,01,28,04,38,10.80
2024,01,28,04,39,10.80
2024,01,28,04,40,10.90
2024,01,28,04,41,10.90
2024,01,28,04,42,10.90
2024,01,28,04,43,10.90
2024,01,28,04,44,10.90
2024,01,28,04,45,10.90
2024,01,28,04,46,10.90
2024,01,28,04,47,10.90
2024,01,28,04,48,10.90
2024,01,28,04,49,10.90
2024,01,28,04,50,10.90
2024,01,28,04,51,10.90
2024,01,28,04,52,10.90
2024,01,28,04,53,10.90
2024,01,28,04,54,10.90
2024,01,28,04,55,10.90
2024,01,28,04,56,10.90
2024,01,28,04,57,10.90
2024,01,28,04,58,10.90
2024,01,28,04,59,10.90
2024,01,28,05,00,10.80
2024,01,28,05,01,10.50
2024,01,28,05,02,10.40
2024,01,28,05,03,10.40
2024,01,28,05,04,10.40
2024,01,28,05,05,10.40
2024,01,28,05,06,10.40
2024,01,28,05,07,10.40
2024,01,28,05,08,10.40
2024,01,28,05,09,10.40
2024,01,28,05,10,10.40
2024,01,28,05,11,10.40
2024,01,28,08,39,10.60
2024,01,28,08,40,10.70
2024,01,28,08,41,10.70
2024,01,28,08,42,10.70
2024,01,28,08,43,10.70
2024,01,28,08,44,10.70
2024,01,28,08,45,10.70
2024,01,28,08,46,10.70
2024,01,28,08,47,10.70
2024,01,28,08,48,10.70
2024,01,28,08,49,10.70
2024,01,28,08,50,10.70
2024,01,28,08,51,10.80
2024,01,28,08,52,10.80
2024,01,28,08,53,10.80
2024,01,28,08,54,10.80
2024,01,28,08,55,10.80
2024,01,28,08,56,10.80
2024,01,28,08,57,10.80
2024,01,28,08,58,10.80
2024,01,28,08,59,10.80
2024,01,28,09,00,10.80
2024,01,28,09,01,10.80
2024,01,28,09,02,10.80
2024,01,28,09,03,10.80
2024,01,28,09,04,10.80
2024,01,28,09,05,10.70
2024,01,28,09,06,10.60
2024,01,28,09,07,10.50
2024,01,28,09,08,10.50
2024,01,28,09,09,10.50
2024,01,28,09,10,10.50
2024,01,28,09,11,10.40
2024,01,28,09,12,10.40
2024,01,28,09,13,10.30
2024,01,28,09,14,10.30
2024,01,28,09,15,10.20
2024,01,28,09,16,10.20
2024,01,28,09,17,10.20
2024,01,28,09,18,10.20
2024,01,28,09,19,10.20
2024,01,28,09,20,10.20
2024,01,28,09,21,10.10
2024,01,28,09,22,10.10
2024,01,28,09,23,10.10
2024,01,28,09,24,10.10
2024,01,28,09,25,10.10
2024,01,28,09,26,10.10
2024,01,28,09,27,10.00
2024,01,28,09,28,10.00
2024,01,28,09,29,9.90
2024,01,28,09,30,9.90
2024,01,28,09,31,9.90
2024,01,28,09,32,9.80
2024,01,28,09,33,9.80
2024,01,28,09,34,9.80
2024,01,28,09,35,9.80
2024,01,28,09,36,9.80
2024,01,28,09,37,9.80
2024,01,28,09,38,9.80
2024,01,28,09,39,9.80
2024,01,28,09,40,9.80
2024,01,28,09,41,9.80
2024,01,28,09,42,9.80
2024,01,28,09,43,9.80
2024,01,28,09,44,9.80
2024,01,28,09,45,9.90
2024,01,28,09,46,9.90
2024,01,28,09,47,9.90
2024,01,28,09,48,9.90
2024,01,28,09,49,9.90
2024,01,28,09,50,9.90
2024,01,28,09,51,10.00
2024,01,28,09,52,10.00
2024,01,28,09,53,10.10
2024,01,28,09,54,10.10
2024,01,28,09,55,10.10
2024,01,28,09,56,10.10
2024,01,28,09,57,10.10
2024,01,28,09,58,10.10
2024,01,28,09,59,10.10
2024,01,28,10,00,10.20
2024,01,28,10,01,10.20
2024,01,28,10,02,10.20
2024,01,28,10,03,10.20
2024,01,28,10,04,10.20
2024,01,28,10,05,10.20
2024,01,28,10,06,10.20
2024,01,28,10,07,10.20
2024,01,28,10,08,10.20
2024,01,28,10,09,10.20
2024,01,28,10,10,10.20
2024,01,28,10,11,10.20
2024,01,28,10,12,10.20
2024,01,28,10,13,10.20
2024,01,28,10,14,10.20
2024,01,28,10,15,10.20
2024,01,28,10,16,10.20
2024,01,28,10,17,10.30
2024,01,28,10,18,10.30
2024,01,28,10,19,10.30
2024,01,28,10,20,10.30
2024,01,28,10,21,10.30
2024,01,28,10,22,10.20
2024,01,28,10,23,10.20
2024,01,28,10,24,10.20
2024,01,28,10,25,10.20
2024,01,28,10,26,10.20
2024,01,28,10,27,10.20
2024,01,28,10,28,10.30
2024,01,28,10,29,10.30
2024,01,28,10,30,10.30
2024,01,28,10,31,10.30
2024,01,28,10,32,10.30
2024,01,28,10,33,10.30
2024,01,28,10,34,10.30
2024,01,28,10,35,10.30
2024,01,28,10,36,10.30
2024,01,28,10,37,10.30
2024,01,28,10,38,10.30
2024,01,28,10,39,10.30
2024,01,28,10,40,10.30
2024,01,28,10,41,10.30
2024,01,28,10,42,10.20
2024,01,28,10,43,10.20
2024,01,28,10,44,10.20
2024,01,28,10,45,10.20
2024,01,28,10,46,10.20
2024,01,28,10,47,10.20
2024,01,28,10,48,10.20
2024,01,28,10,49,10.20
2024,01,28,10,50,10.20
2024,01,28,10,51,10.20
2024,01,28,10,52,10.30
2024,01,28,10,53,10.30
2024,01,28,10,54,10.30
2024,01,28,10,55,10.30
2024,01,28,10,56,10.30
2024,01,28,10,57,10.40
2024,01,28,10,58,10.40
2024,01,28,10,59,10.40
2024,01,28,11,00,10.40
2024,01,28,11,01,10.40
2024,01,28,11,02,10.40
2024,01,28,11,03,10.40
2024,01,28,11,04,10.40
2024,01,28,11,05,10.40
2024,01,28,11,06,10.40
2024,01,28,11,07,10.40
2024,01,28,11,08,10.40
2024,01,28,11,09,10.40
2024,01,28,11,10,10.40
2024,01,28,11,11,10.40
2024,01,28,11,12,10.40
2024,01,28,11,13,10.40
2024,01,28,11,14,10.40
2024,01,28,11,15,10.40
2024,01,28,11,16,10.40
2024,01,28,11,17,10.40
2024,01,28,11,18,10.40
2024,01,28,11,19,10.40
2024,01,28,11,20,10.40
2024,01,28,11,21,10.40
2024,01,28,11,22,10.40
2024,01,28,11,23,10.40
2024,01,28,11,24,10.40
2024,01,28,11,25,10.40
2024,01,28,11,26,10.40
2024,01,28,11,27,10.40
2024,01,28,11,28,10.50
2024,01,28,11,29,10.50
2024,01,28,11,30,10.50
2024,01,28,11,31,10.50
2024,01,28,11,32,10.50
2024,01,28,11,33,10.50
2024,01,28,11,34,10.50
2024,01,28,11,35,10.40
2024,01,28,11,36,10.40
2024,01,28,11,37,10.40
2024,01,28,11,38,10.40
2024,01,28,11,39,10.40
2024,01,28,11,40,10.40
2024,01,28,11,41,10.40
2024,01,28,11,42,10.40
2024,01,28,11,43,10.40
2024,01,28,11,44,10.40
2024,01,28,11,45,10.30
2024,01,28,11,46,10.30
2024,01,28,11,47,10.30
2024,01,28,11,48,10.30
2024,01,28,11,49,10.40
2024,01,28,11,50,10.40
2024,01,28,11,51,10.40
2024,01,28,11,52,10.40
2024,01,28,11,53,10.40
2024,01,28,11,54,10.40
2024,01,28,11,55,10.40
2024,01,28,11,56,10.40
2024,01,28,11,57,10.40
2024,01,28,11,58,10.40
2024,01,28,11,59,10.40
2024,01,28,12,00,10.40
2024,01,28,12,01,10.40
2024,01,28,12,02,10.50
2024,01,28,12,03,10.40
2024,01,28,12,04,10.40
2024,01,28,12,05,10.50
2024,01,28,12,06,10.50
2024,01,28,12,07,10.50
2024,01,28,12,08,10.60
2024,01,28,12,09,10.60
2024,01,28,12,10,10.70
2024,01,28,12,11,10.70
2024,01,28,12,12,10.80
2024,01,28,12,13,10.80
2024,01,28,12,14,10.80
2024,01,28,12,15,10.90
2024,01,28,12,16,10.90
2024,01,28,12,17,11.00
2024,01,28,12,18,11.00
2024,01,28,12,19,11.00
2024,01,28,12,20,11.10
2024,01,28,12,21,11.10
2024,01,28,12,22,11.10
2024,01,28,12,23,11.10
2024,01,28,12,24,11.10
2024,01,28,12,25,11.10
2024,01,28,12,26,11.10
2024,01,28,12,27,11.20
2024,01,28,12,28,11.20
2024,01,28,12,29,11.20
2024,01,28,12,30,11.20
2024,01,28,12,31,11.20
2024,01,28,12,32,11.20
2024,01,28,12,33,11.30
2024,01,28,12,34,11.30
2024,01,28,12,35,11.30
2024,01,28,12,36,11.30
2024,01,28,12,37,11.30
2024,01,28,12,38,11.30
2024,01,28,12,39,11.30
2024,01,28,12,40,11.30
2024,01,28,12,41,11.30
2024,01,28,12,42,11.30
2024,01,28,12,43,11.30
2024,01,28,12,44,11.30
2024,01,28,12,45,11.30
2024,01,28,12,46,11.30
2024,01,28,12,47,11.30
2024,01,28,12,48,11.30
2024,01,28,12,49,11.30
2024,01,28,12,50,11.30
2024,01,28,12,51,11.30
2024,01,28,12,52,11.30
2024,01,28,12,53,11.30
2024,01,28,12,54,11.30
2024,01,28,12,55,11.30
2024,01,28,12,56,11.30
2024,01,28,12,57,11.30
2024,01,28,12,58,11.40
2024,01,28,12,59,11.40
2024,01,28,13,00,11.40
2024,01,28,13,01,11.40
2024,01,28,13,02,11.40
2024,01,28,13,03,11.40
2024,01,28,13,04,11.40
2024,01,28,13,05,11.40
2024,01,28,13,06,11.40
2024,01,28,13,07,11.40
2024,01,28,13,08,11.40
2024,01,28,13,09,11.40
2024,01,28,13,10,11.40
2024,01,28,13,11,11.50
2024,01,28,13,12,11.50
2024,01,28,13,13,11.50
2024,01,28,13,14,11.50
2024,01,28,13,15,11.50
2024,01,28,13,16,11.60
2024,01,28,13,17,11.60
2024,01,28,13,18,11.60
2024,01,28,13,19,11.60
2024,01,28,13,20,11.60
2024,01,28,13,21,11.70
2024,01,28,13,22,11.70
2024,01,28,13,23,11.70
2024,01,28,13,24,11.70
2024,01,28,13,25,11.70
2024,01,28,13,26,11.70
2024,01,28,13,27,11.80
2024,01,28,13,28,11.80
2024,01,28,13,29,11.80
2024,01,28,13,30,11.80
2024,01,28,13,31,11.80
2024,01,28,13,32,11.80
2024,01,28,13,33,11.80
2024,01,28,13,34,11.80
2024,01,28,13,35,11.80
2024,01,28,13,36,11.90
2024,01,28,13,37,11.90
2024,01,28,13,38,11.90
2024,01,28,13,39,11.90
2024,01,28,13,40,11.90
2024,01,28,13,41,11.90
2024,01,28,13,42,11.90
2024,01,28,13,43,11.90
2024,01,28,13,44,11.90
2024,01,28,13,45,11.90
2024,01,28,13,46,11.90
2024,01,28,13,47,11.90
2024,01,28,13,48,11.90
2024,01,28,13,49,11.90
2024,01,28,13,50,11.90
2024,01,28,13,51,11.90
2024,01,28,13,52,11.90
2024,01,28,13,53,11.90
2024,01,28,13,54,11.90
2024,01,28,13,55,11.90
2024,01,28,13,56,11.90
2024,01,28,13,57,11.90
2024,01,28,13,58,12.00
2024,01,28,13,59,12.00
2024,01,28,14,00,12.00
2024,01,28,14,01,12.00
2024,01,28,14,02,12.00
2024,01,28,14,03,12.00
2024,01,28,14,04,12.00
2024,01,28,14,05,12.00
2024,01,28,14,06,12.00
2024,01,28,14,07,12.00
2024,01,28,14,08,12.00
2024,01,28,14,09,12.00
2024,01,28,14,10,12.00
2024,01,28,14,11,12.00
2024,01,28,14,12,12.10
2024,01,28,14,13,12.10
2024,01,28,14,14,12.10
2024,01,28,14,15,12.10
2024,01,28,14,16,12.10
2024,01,28,14,17,12.10
2024,01,28,14,18,12.10
2024,01,28,14,19,12.10
2024,01,28,14,20,12.20
2024,01,28,14,21,12.20
2024,01,28,14,22,12.20
2024,01,28,14,23,12.20
2024,01,28,14,24,12.20
2024,01,28,14,25,12.20
2024,01,28,14,26,12.20
2024,01,28,14,27,12.30
2024,01,28,14,28,12.30
2024,01,28,14,29,12.30
2024,01,28,14,30,12.30
2024,01,28,14,31,12.30
2024,01,28,14,32,12.30
2024,01,28,14,33,12.30
2024,01,28,14,34,12.30
2024,01,28,14,35,12.30
2024,01,28,14,36,12.30
2024,01,28,14,37,12.30
2024,01,28,14,38,12.20
2024,01,28,14,39,12.20
2024,01,28,14,40,12.20
2024,01,28,14,41,12.20
2024,01,28,14,42,12.20
2024,01,28,14,43,12.20
2024,01,28,14,44,12.20
2024,01,28,14,45,12.20
2024,01,28,14,46,12.20
2024,01,28,14,47,12.20
2024,01,28,14,48,12.20
2024,01,28,14,49,12.10
2024,01,28,14,50,12.20
2024,01,28,14,51,12.10
2024,01,28,14,52,12.10
2024,01,28,14,53,12.10
2024,01,28,14,54,12.10
2024,01,28,14,55,12.10
2024,01,28,14,56,12.10
2024,01,28,14,57,12.10
2024,01,28,14,58,12.00
2024,01,28,14,59,12.00
2024,01,28,15,00,12.00
2024,01,28,15,01,12.00
2024,01,28,15,02,12.00
2024,01,28,15,03,12.00
2024,01,28,15,04,11.90
2024,01,28,15,05,11.90
2024,01,28,15,06,11.90
2024,01,28,15,07,11.90
2024,01,28,15,08,11.80
2024,01,28,15,09,11.80
2024,01,28,15,10,11.80
2024,01,28,15,11,11.80
2024,01,28,15,12,11.80
2024,01,28,15,13,11.80
2024,01,28,15,14,11.80
2024,01,28,15,15,11.80
2024,01,28,15,16,11.80
2024,01,28,15,17,11.80
2024,01,28,15,18,11.80
2024,01,28,15,19,11.80
2024,01,28,15,20,11.80
2024,01,28,15,21,11.80
2024,01,28,15,22,11.80
2024,01,28,15,23,11.80
2024,01,28,15,24,11.80
2024,01,28,15,25,11.80
2024,01,28,15,26,11.80
2024,01,28,15,27,11.70
2024,01,28,15,28,11.70
2024,01,28,15,29,11.70
2024,01,28,15,30,11.60
2024,01,28,15,31,11.60
2024,01,28,15,32,11.60
2024,01,28,15,33,11.60
2024,01,28,15,34,11.50
2024,01,28,15,35,11.50
2024,01,28,15,36,11.40
2024,01,28,15,37,11.40
2024,01,28,15,38,11.40
2024,01,28,15,39,11.30
2024,01,28,15,40,11.30
2024,01,28,15,41,11.30
2024,01,28,15,42,11.30
2024,01,28,15,43,11.30
2024,01,28,15,44,11.20
2024,01,28,15,45,11.20
2024,01,28,15,46,11.20
2024,01,28,15,47,11.20
2024,01,28,15,48,11.20
2024,01,28,15,49,11.20
2024,01,28,15,50,11.20
2024,01,28,15,51,11.20
2024,01,28,15,52,11.20
2024,01,28,15,53,11.20
2024,01,28,15,54,11.20
2024,01,28,15,55,11.20
2024,01,28,15,56,11.10
2024,01,28,15,57,11.10
2024,01,28,15,58,11.10
2024,01,28,15,59,11.10
2024,01,28,16,00,11.10
2024,01,28,16,01,11.00
2024,01,28,16,02,11.00
2024,01,28,16,03,11.00
2024,01,28,16,04,11.00
2024,01,28,16,05,10.90
2024,01,28,16,06,10.90
2024,01,28,16,07,10.90
2024,01,28,16,08,10.90
2024,01,28,16,09,10.80
2024,01,28,16,10,10.80
2024,01,28,16,11,10.80
2024,01,28,16,12,10.80
2024,01,28,16,13,10.70
2024,01,28,16,14,10.70
2024,01,28,16,15,10.70
2024,01,28,16,16,10.70
2024,01,28,16,17,10.70
2024,01,28,16,18,10.70
2024,01,28,16,19,10.70
2024,01,28,16,20,10.70
2024,01,28,16,21,10.70
2024,01,28,16,22,10.70
2024,01,28,16,23,10.70
2024,01,28,16,24,10.60
2024,01,28,16,25,10.60
2024,01,28,16,26,10.60
2024,01,28,16,27,10.60
2024,01,28,16,28,10.60
2024,01,28,16,29,10.60
2024,01,28,16,30,10.60
2024,01,28,16,31,10.60
2024,01,28,16,32,10.70
2024,01,28,16,33,10.70
2024,01,28,16,34,10.70
2024,01,28,16,35,10.70
2024,01,28,16,36,10.70
2024,01,28,16,37,10.80
2024,01,28,16,38,10.80
2024,01,28,16,39,10.80
2024,01,28,16,40,10.80
2024,01,28,16,41,10.80
2024,01,28,16,42,10.80
2024,01,28,16,43,10.90
2024,01,28,16,44,10.90
2024,01,28,16,45,10.90
2024,01,28,16,46,11.00
2024,01,28,16,47,11.00
2024,01,28,16,48,11.10
2024,01,28,16,49,11.10
2024,01,28,16,50,11.20
2024,01,28,16,51,11.20
2024,01,28,16,52,11.20
2024,01,28,16,53,11.20
2024,01,28,16,54,11.30
2024,01,28,16,55,11.30
2024,01,28,16,56,11.30
2024,01,28,16,57,11.30
2024,01,28,16,58,11.30
2024,01,28,16,59,11.30
2024,01,28,17,00,11.40
2024,01,28,17,01,11.40
2024,01,28,17,02,11.40
2024,01,28,17,03,11.40
2024,01,28,17,04,11.40
2024,01,28,17,05,11.40
2024,01,28,17,06,11.40
2024,01,28,17,07,11.40
2024,01,28,17,08,11.40
2024,01,28,17,09,11.40
2024,01,28,17,10,11.40
2024,01,28,17,11,11.40
2024,01,28,17,12,11.40
2024,01,28,17,13,11.40
2024,01,28,17,14,11.40
2024,01,28,17,15,11.40
2024,01,28,17,16,11.40
2024,01,28,17,17,11.40
2024,01,28,17,18,11.40
2024,01,28,17,19,11.40
2024,01,28,17,20,11.40
2024,01,28,17,21,11.40
2024,01,28,17,22,11.40
2024,01,28,17,23,11.40
2024,01,28,17,24,11.40
2024,01,28,17,25,11.40
2024,01,28,17,26,11.40
2024,01,28,17,27,11.40
2024,01,28,17,28,11.40
2024,01,28,17,29,11.40
2024,01,28,17,30,11.40
2024,01,28,17,31,11.40
2024,01,28,17,32,11.40
2024,01,28,17,33,11.40
2024,01,28,17,34,11.40
2024,01,28,17,35,11.40
2024,01,28,17,36,11.40
2024,01,28,17,37,11.40
2024,01,28,17,38,11.40
2024,01,28,17,39,11.40
2024,01,28,17,40,11.40
2024,01,28,17,41,11.40
2024,01,28,17,42,11.40
2024,01,28,17,43,11.50
2024,01,28,17,44,11.50
2024,01,28,17,45,11.50
2024,01,28,17,46,11.50
2024,01,28,17,47,11.50
2024,01,28,17,48,11.50
2024,01,28,17,49,11.50
2024,01,28,17,50,11.50
2024,01,28,17,51,11.50
2024,01,28,17,52,11.50
2024,01,28,17,53,11.50
2024,01,28,17,54,11.50
2024,01,28,17,55,11.50
2024,01,28,17,56,11.50
2024,01,28,17,57,11.50
2024,01,28,17,58,11.50
2024,01,28,17,59,11.50
2024,01,28,18,00,11.40
2024,01,28,18,01,11.40
2024,01,28,18,02,11.40
2024,01,28,18,03,11.40
2024,01,28,18,04,11.40
2024,01,28,18,05,11.40
2024,01,28,18,06,11.40
2024,01,28,18,07,11.50
2024,01,28,18,08,11.50
2024,01,28,18,09,11.60
2024,01,28,18,10,11.60
2024,01,28,18,11,11.60
2024,01,28,18,12,11.70
2024,01,28,18,13,11.70
2024,01,28,18,14,11.70
2024,01,28,18,15,11.80
2024,01,28,18,16,11.80
2024,01,28,18,17,11.80
2024,01,28,18,18,11.80
2024,01,28,18,19,11.80
2024,01,28,18,20,11.80
2024,01,28,18,21,11.70
2024,01,28,18,22,11.70
2024,01,28,18,23,11.70
2024,01,28,18,24,11.70
2024,01,28,18,25,11.70
2024,01,28,18,26,11.70
2024,01,28,18,27,11.70
2024,01,28,18,28,11.70
2024,01,28,18,29,11.70
2024,01,28,18,30,11.70
2024,01,28,18,31,11.70
2024,01,28,18,32,11.70
2024,01,28,18,33,11.60
2024,01,28,18,34,11.60
2024,01,28,18,35,11.60
2024,01,28,18,36,11.60
2024,01,28,18,37,11.60
2024,01,28,18,38,11.60
2024,01,28,18,39,11.60
2024,01,28,18,40,11.60
2024,01,28,18,41,11.60
2024,01,28,18,42,11.60
2024,01,28,18,43,11.60
2024,01,28,18,44,11.60
2024,01,28,18,45,11.60
2024,01,28,18,46,11.60
2024,01,28,18,47,11.60
2024,01,28,18,48,11.70
2024,01,28,18,49,11.70
2024,01,28,18,50,11.70
2024,01,28,18,51,11.70
2024,01,28,18,52,11.70
2024,01,28,18,53,11.70
2024,01,28,18,54,11.70
2024,01,28,18,55,11.70
2024,01,28,18,56,11.70
2024,01,28,18,57,11.70
2024,01,28,18,58,11.70
2024,01,28,18,59,11.70
2024,01,28,19,00,11.70
2024,01,28,19,01,11.70
2024,01,28,19,02,11.70
2024,01,28,19,03,11.70
2024,01,28,19,04,11.70
2024,01,28,19,05,11.70
2024,01,28,19,06,11.70
2024,01,28,19,07,11.70
2024,01,28,19,08,11.70
2024,01,28,19,09,11.70
2024,01,28,19,10,11.70
2024,01,28,19,11,11.70
2024,01,28,19,12,11.70
2024,01,28,19,13,11.70
2024,01,28,19,14,11.70
2024,01,28,19,15,11.70
2024,01,28,19,16,11.70
2024,01,28,19,17,11.70
2024,01,28,19,18,11.60
2024,01,28,19,19,11.70
2024,01,28,19,20,11.70
2024,01,28,19,21,11.70
2024,01,28,19,22,11.70
2024,01,28,19,23,11.70
2024,01,28,19,24,11.70
2024,01,28,19,25,11.80
2024,01,28,19,26,11.80
2024,01,28,19,27,11.80
2024,01,28,19,28,11.80
2024,01,28,19,29,11.80
2024,01,28,19,30,11.80
2024,01,28,19,31,11.80
2024,01,28,19,32,11.80
2024,01,28,19,33,11.80
2024,01,28,19,34,11.80
2024,01,28,19,35,11.80
2024,01,28,19,36,11.80
2024,01,28,19,37,11.80
2024,01,28,19,38,11.80
2024,01,28,19,39,11.80
2024,01,28,19,40,11.80
2024,01,28,19,41,11.80
2024,01,28,19,42,11.80
2024,01,28,19,43,11.80
2024,01,28,19,44,11.80
2024,01,28,19,45,11.80
2024,01,28,19,46,11.80
2024,01,28,19,47,11.80
2024,01,28,19,48,11.80
2024,01,28,19,49,11.80
2024,01,28,19,50,11.80
2024,01,28,19,51,11.80
2024,01,28,19,52,11.80
2024,01,28,19,53,11.80
2024,01,28,19,54,11.80
2024,01,28,19,55,11.80
2024,01,28,19,56,11.80
2024,01,28,19,57,11.80
2024,01,28,19,58,11.80
2024,01,28,19,59,11.80
2024,01,28,20,00,11.80
2024,01,28,20,01,11.80
2024,01,28,20,02,11.80
2024,01,28,20,03,11.80
2024,01,28,20,04,11.70
2024,01,28,20,05,11.70
2024,01,28,20,06,11.70
2024,01,28,20,07,11.70
2024,01,28,20,08,11.70
2024,01,28,20,09,11.70
2024,01,28,20,10,11.70
2024,01,28,20,11,11.80
2024,01,28,20,12,11.80
2024,01,28,20,13,11.80
2024,01,28,20,14,11.80
2024,01,28,20,15,11.80
2024,01,28,20,16,11.80
2024,01,28,20,17,11.80
2024,01,28,20,18,11.80
2024,01,28,20,19,11.80
2024,01,28,20,20,11.80
2024,01,28,20,21,11.80
2024,01,28,20,22,11.80
2024,01,28,20,23,11.80
2024,01,28,20,24,11.80
2024,01,28,20,25,11.80
2024,01,28,20,26,11.80
2024,01,28,20,27,11.90
2024,01,28,20,28,11.90
2024,01,28,20,29,11.90
2024,01,28,20,30,11.90
2024,01,28,20,31,11.90
2024,01,28,20,32,11.90
2024,01,28,20,33,11.80
2024,01,28,20,34,11.80
2024,01,28,20,35,11.90
2024,01,28,20,36,11.90
2024,01,28,20,37,11.80
2024,01,28,20,38,11.80
2024,01,28,20,39,11.80
2024,01,28,20,40,11.80
2024,01,28,20,41,11.80
2024,01,28,20,42,11.80
2024,01,28,20,43,11.80
2024,01,28,20,44,11.80
2024,01,28,20,45,11.80
2024,01,28,20,46,11.80
2024,01,28,20,47,11.80